Flag for U.S.A. Weather past 2 weeks in Houston, Texas, U.S.A.

Now
79 °F

Passing clouds.


Feels Like: 83 °F
Forecast: 78 / 97 °F
Wind: No wind

Location: Houston Hobby Airport

Current Time: Jul 28, 2015 at 6:30:13 AM

Latest Report: Jul 28, 2015 at 5:53 AM


Visibility: 10 mi

Pressure: 29.96 "Hg

Humidity: 90%

Dew point: 76 °F

Location of HoustonLocation

Historic Weather in Houston — Graph

°F

Houston temperature yesterday

Maximum temperature yesterday: 96 °F (at 3:53 PM)
Minimum temperature yesterday: 79 °F (at 5:53 AM)
Average temperature yesterday: 86 °F

Past Weeks' High & Low Weather Summary

 TemperatureHumidityPressure
High97 °F (Jul 23, 2:53 PM)100% (Jul 26, 3:53 AM)30.07 "Hg (Jul 26, 3:53 AM)
Low76 °F (Jul 13, 6:53 AM)39% (Jul 23, 2:53 PM)29.85 "Hg (Jul 14, 7:53 PM)
Average85 °F71%29.96 "Hg
* Reported Jul 13 4:53 AM — Jul 28 4:53 AM, Houston, Weather by CustomWeather, © 2015

Note: Actual official high and low records may vary slightly from our data, if they occured in-between our weather recording intervals... More about our weather records

Advertising

Houston weather history for previous 24 hours

 ConditionsComfort  
Time TempWeatherWind HumidityBarometerVisibility
4:53 AM
Tue, Jul 28
79 °FPassing clouds.No wind90%29.95 "Hg10 mi
3:53 AM79 °FPassing clouds.No wind90%29.94 "Hg10 mi
2:53 AM79 °FPassing clouds.No wind88%29.95 "Hg10 mi
1:53 AM80 °FPassing clouds.5 mph85%29.96 "Hg10 mi
12:53 AM81 °FPassing clouds.5 mph85%29.96 "Hg10 mi
11:53 PM
Mon, Jul 27
82 °FPassing clouds.5 mph82%29.96 "Hg10 mi
10:53 PM82 °FPassing clouds.7 mph82%29.95 "Hg10 mi
9:53 PM83 °FPassing clouds.8 mph77%29.93 "Hg10 mi
8:53 PM85 °FScattered clouds.7 mph72%29.91 "Hg10 mi
7:53 PM87 °FScattered clouds.9 mph65%29.90 "Hg10 mi
6:53 PM91 °FScattered clouds.10 mph52%29.89 "Hg10 mi
5:53 PM93 °FScattered clouds.13 mph49%29.89 "Hg10 mi
4:53 PM96 °FScattered clouds.12 mph44%29.90 "Hg10 mi
3:53 PM96 °FScattered clouds.10 mph46%29.90 "Hg10 mi
2:53 PM95 °FScattered clouds.9 mph49%29.92 "Hg10 mi
1:53 PM95 °FBroken clouds.9 mph46%29.94 "Hg10 mi
12:53 PM93 °FScattered clouds.No wind49%29.96 "Hg10 mi
11:53 AM91 °FScattered clouds.6 mph56%29.97 "Hg10 mi
10:53 AM89 °FScattered clouds.3 mph61%29.98 "Hg10 mi
9:53 AM86 °FBroken clouds.7 mph72%29.99 "Hg10 mi
8:53 AM84 °FPartly sunny.3 mph83%29.98 "Hg7 mi
7:53 AM82 °FPartly sunny.No wind85%29.96 "Hg7 mi
6:53 AM80 °FPassing clouds.No wind90%29.94 "Hg10 mi
Weather by CustomWeather, © 2015

See weather overviewHow to use our weather pages